Temperature
24 23 22 21 21 20 19 19 18 17 16 16 15 15 15 15 15 14 14 13 13 13 13 13 13 13 13 13 14 14 14 14 15 15 15 16 16 16 16 17 17 17 17
25 23 22 21 20 20 19 19 18 17 16 16 15 15 15 15 15 14 14 13 13 13 13 13 13 13 13 13 13 13 14 14 14 14 15 15 16 16 16 17 17 17 17
25 23 22 21 20 20 19 19 18 17 16 15 15 15 15 15 14 14 14 13 13 13 13 13 13 13 13 13 13 13 14 14 14 14 14 15 15 16 16 16 16 17 17
25 24 22 21 20 20 19 18 17 17 16 15 15 15 15 15 14 14 14 14 13 13 13 13 13 13 13 13 13 13 13 13 14 14 14 15 15 15 15 16 16 16 16
25 24 23 22 21 20 19 18 17 17 16 15 15 15 14 14 14 14 14 14 14 13 13 13 13 13 13 13 13 13 13 13 13 14 14 14 15 15 15 15 16 16 16
25 24 23 21 21 20 19 18 17 16 16 15 15 15 14 14 14 14 14 14 14 14 13 13 13 13 13 13 13 13 13 13 13 13 14 14 14 14 14 15 15 15 16
24 23 22 21 20 19 18 18 17 16 16 15 15 15 15 14 14 14 14 14 14 14 13 13 13 13 12 12 13 13 13 13 13 13 13 13 14 14 14 14 15 15 15
24 23 22 21 20 19 18 17 17 16 16 15 15 15 15 15 15 14 14 14 14 14 13 13 13 13 13 12 13 12 13 13 13 13 13 13 13 13 14 14 14 14 15
24 23 22 21 20 19 18 18 17 16 16 16 15 15 15 15 15 14 14 14 14 14 13 13 13 13 13 13 13 12 12 13 13 13 13 13 13 13 13 13 14 14 14
24 23 22 21 20 19 18 18 17 17 16 16 16 15 15 15 15 14 14 14 14 14 13 13 13 13 13 13 13 13 13 12 13 13 13 13 13 13 13 13 13 13 14
24 23 22 21 20 19 18 18 17 17 16 16 16 16 15 15 15 14 14 14 14 14 14 14 14 13 13 13 13 13 12 12 12 12 13 13 13 13 13 13 13 13 13
24 23 22 21 20 20 19 18 18 17 17 16 16 16 15 15 15 15 14 14 14 14 14 14 14 14 13 13 13 13 13 13 12 12 12 12 12 13 13 13 13 13 13
24 23 22 21 21 20 19 19 18 18 17 16 16 16 15 15 15 15 15 14 14 14 14 14 14 14 13 13 13 13 13 13 13 13 13 12 12 12 12 12 12 12 13
25 24 23 22 21 20 19 19 18 18 17 17 16 16 16 15 15 15 15 14 14 14 14 14 14 14 14 14 13 13 13 13 13 13 13 13 12 12 12 12 12 12 12
25 24 23 22 21 20 20 19 19 18 17 17 16 16 16 16 15 15 15 15 15 14 14 14 14 14 14 14 14 14 13 13 13 13 13 13 13 13 12 12 12 12 12
25 24 23 22 21 20 20 19 19 18 17 17 17 16 16 16 16 15 15 15 15 15 14 14 14 14 14 14 14 14 14 14 13 13 13 13 13 13 13 12 12 12 12
24 24 24 23 22 21 20 20 19 18 18 17 17 17 16 16 16 15 15 15 15 15 15 15 14 14 14 14 14 14 14 14 14 13 13 13 13 13 13 12 12 12 12
24 24 23 23 23 22 21 20 20 19 18 17 17 17 16 16 16 15 15 15 15 15 15 15 14 14 14 14 14 14 14 14 14 14 13 13 13 13 13 12 12 12 12
24 23 23 23 23 23 22 21 20 19 18 18 18 17 17 16 16 16 16 16 15 15 15 15 14 14 14 14 14 14 14 14 14 14 13 13 13 13 13 13 12 12 12
23 23 23 23 23 23 22 22 21 20 19 18 18 17 17 16 16 16 16 15 15 15 15 15 14 14 14 14 14 14 14 13 13 13 13 13 13 13 13 13 12 12 12
22 22 22 22 23 23 22 22 21 20 19 19 18 17 17 17 16 16 16 15 15 15 15 14 14 14 14 13 13 13 13 13 13 13 13 13 13 13 13 12 12 12 12
21 21 21 21 22 22 22 21 21 21 20 19 18 18 17 17 16 16 16 15 15 15 14 14 14 14 13 13 13 13 13 13 13 13 13 13 13 13 12 12 12 12 12
21 21 21 21 21 21 21 21 21 20 20 19 18 18 17 17 16 16 16 15 15 15 14 14 14 13 13 13 13 12 12 12 12 12 12 12 12 12 12 12 12 11 11
20 20 20 20 20 20 20 20 20 20 20 19 18 18 17 16 16 16 15 15 15 15 14 14 14 13 13 13 12 12 12 12 12 12 11 11 11 11 11 11 11 11 11
19 19 19 19 19 19 19 20 20 19 19 18 18 17 17 16 16 16 15 15 15 15 14 14 14 13 13 13 12 12 12 12 11 11 11 11 11 11 10 10 10 10 10
18 18 18 19 19 19 19 19 19 19 18 18 17 17 16 16 16 16 15 15 15 14 14 14 14 13 13 12 12 12 12 11 11 11 10 10 10 10 10 10 10 9 9
Wind_Speed
11 11 10 9 7 6 4 8 5 4 4 3 1 2 2 2 2 2 4 3 4 6 4 4 5 4 3 4 4 3 3 3 2 2 2 2 3 3 3 2 2 2 1
10 11 11 9 7 7 5 6 6 5 5 3 1 1 1 1 1 1 2 3 5 5 6 5 5 4 3 3 4 4 2 3 2 1 1 1 1 1 3 2 2 2 1
10 13 12 10 8 7 7 5 6 6 6 4 1 2 1 2 1 1 2 1 1 3 4 5 5 4 3 3 3 4 3 2 3 2 1 1 1 1 1 2 2 2 1
7 11 12 10 10 8 7 7 7 6 6 4 3 1 1 1 1 1 1 1 2 2 2 4 4 4 3 3 4 4 3 3 3 3 2 1 0 0 1 1 1 1 2
8 10 11 10 9 9 8 6 7 6 5 4 5 2 1 1 1 1 1 1 2 1 1 2 4 4 3 3 4 3 3 2 2 2 2 2 2 1 1 1 1 1 1
7 9 10 10 9 9 8 7 7 6 6 3 3 4 2 0 1 1 0 2 1 1 2 1 3 3 4 4 4 4 3 2 2 2 2 2 2 2 1 1 1 1 1
8 9 10 10 10 10 9 8 8 7 7 6 5 4 4 3 3 1 0 2 1 1 3 2 3 2 3 3 3 4 3 2 2 1 2 2 2 2 2 1 2 2 2
8 10 11 11 10 10 10 9 8 7 7 6 6 4 5 3 1 1 1 2 1 2 2 1 2 1 2 3 3 3 3 3 3 3 2 1 2 1 1 1 1 2 2
7 9 11 11 11 11 10 9 9 8 8 7 6 5 3 3 1 1 2 0 0 2 2 2 2 1 1 1 3 2 3 3 2 3 4 3 2 1 1 1 1 0 1
8 9 10 11 11 11 10 10 9 8 8 7 5 4 2 3 2 2 1 1 1 2 1 2 2 0 1 1 1 2 2 3 1 1 1 1 2 2 2 1 1 1 0
8 9 9 10 10 11 11 10 9 8 8 7 6 6 5 4 4 3 2 2 2 1 2 2 2 1 1 1 2 1 1 3 3 3 1 1 1 2 2 2 2 1 0
8 9 10 10 10 11 11 11 10 9 8 7 6 6 6 5 5 4 4 4 3 2 2 2 0 1 1 1 1 1 1 1 1 2 2 2 1 1 2 2 2 2 1
8 9 10 10 10 10 10 10 10 9 9 8 6 6 7 6 5 4 4 3 2 2 3 2 1 1 0 1 1 1 2 1 1 0 1 2 2 1 1 1 2 2 2
9 9 10 10 10 11 10 10 10 9 10 9 7 7 7 7 6 5 3 3 2 2 2 1 1 1 1 0 2 2 2 2 1 1 1 0 1 2 3 2 3 2 2
8 9 11 11 11 11 11 10 10 10 10 10 9 8 7 7 6 5 5 4 3 3 2 1 1 1 1 1 0 3 4 3 2 1 2 2 3 3 1 1 3 4 3
6 8 10 12 12 13 12 11 11 11 10 10 10 8 7 7 7 5 5 4 3 3 2 2 3 3 2 3 3 1 4 5 4 3 2 3 5 5 5 4 4 3 3
4 6 8 10 12 14 14 12 12 11 11 10 10 9 8 7 7 7 6 5 5 5 5 4 4 4 3 5 5 5 3 5 5 4 3 1 2 4 3 5 7 7 9
3 5 6 8 10 12 13 13 12 12 12 11 10 10 9 8 8 7 6 5 5 5 5 5 5 4 4 7 7 6 5 6 6 5 4 3 1 3 1 1 2 3 4
3 3 5 6 8 10 12 13 13 12 12 11 11 11 11 9 9 8 7 6 5 4 3 4 5 4 4 6 6 5 4 5 6 5 3 2 2 2 2 0 3 3 3
4 3 3 4 6 8 10 12 13 13 12 12 11 11 11 10 9 8 7 5 5 5 4 4 4 4 3 4 5 5 3 5 4 3 2 3 4 4 3 0 2 3 3
5 4 3 3 4 5 8 11 11 12 12 11 10 9 10 10 9 7 6 4 5 5 4 4 3 3 3 4 5 5 2 3 4 2 0 1 4 4 3 1 1 2 4
5 4 3 3 3 3 6 9 10 10 10 11 10 9 9 9 8 8 6 5 5 4 5 4 3 2 2 4 4 5 5 3 3 2 1 1 3 3 2 1 1 3 4
6 4 4 4 4 3 5 7 8 9 10 11 11 9 9 8 8 8 7 5 5 4 4 3 2 2 2 3 3 2 4 4 2 0 2 2 2 2 2 1 2 2 2
7 5 5 5 5 5 5 5 6 9 10 11 11 10 9 8 8 6 5 4 4 3 3 2 2 2 3 3 2 2 1 1 1 1 1 2 2 1 1 1 1 1 1
7 6 6 6 6 6 6 6 6 9 10 11 11 10 9 9 8 6 3 5 3 3 3 2 3 2 3 3 3 2 1 1 1 1 1 2 2 2 2 2 2 2 2
9 8 7 7 7 7 7 7 8 9 10 11 11 9 9 8 8 8 6 9 7 9 9 8 7 5 6 6 4 4 3 3 2 2 2 3 3 3 3 2 2 3 3
Wind_Direction
178 159 150 143 149 156 145 122 132 127 107 79 27 32 43 357 51 56 64 7 2 3 342 351 348 356 353 346 339 335 331 313 289 309 299 264 212 198 214 241 268 275 244
169 152 150 149 165 157 147 137 135 113 103 100 50 142 80 308 99 69 80 32 19 7 352 360 347 349 339 352 346 346 347 325 331 341 323 313 291 251 207 204 223 243 232
176 159 158 156 163 158 152 146 127 132 119 130 89 30 13 287 52 48 80 53 43 22 2 341 340 338 352 357 342 5 358 333 329 5 11 17 296 303 286 220 208 223 213
164 153 156 159 163 159 151 149 136 125 123 133 103 12 290 47 64 35 86 300 100 59 18 339 337 340 358 2 355 15 347 347 343 339 338 325 344 336 316 309 274 233 204
165 156 155 158 160 151 145 142 132 129 128 128 133 225 333 26 34 15 59 336 123 151 98 4 340 341 2 14 8 4 359 5 4 343 331 343 354 343 46 317 317 314 272
165 156 149 146 145 137 139 140 138 136 136 156 175 199 159 228 279 287 37 309 214 141 95 32 336 350 17 15 4 347 353 7 14 357 357 8 12 6 24 352 331 305 285
169 157 150 150 147 146 150 155 155 156 164 184 205 196 177 212 235 206 154 280 310 95 79 32 340 19 14 353 357 336 336 356 20 19 15 3 349 6 9 8 336 316 286
167 161 157 157 156 158 161 171 170 170 173 194 209 200 180 200 202 148 264 260 18 80 78 14 330 26 18 352 358 330 343 6 7 15 22 343 337 17 22 19 1 336 310
163 162 160 162 163 168 172 179 176 178 180 197 202 201 185 164 147 208 242 227 48 88 63 297 280 165 116 27 358 339 359 357 12 6 2 3 350 357 17 17 11 16 339
170 170 165 169 171 174 176 181 183 186 181 189 198 177 169 157 163 245 319 21 349 92 249 281 298 243 150 163 116 337 342 332 332 223 272 355 343 10 357 344 334 352 300
173 172 168 173 173 171 173 179 185 189 179 184 190 173 178 187 193 197 180 210 254 207 245 240 280 11 19 31 125 247 339 341 337 344 21 19 36 13 348 350 343 322 336
170 169 168 171 175 176 178 182 187 185 175 180 187 178 169 185 207 193 188 210 208 204 249 255 223 56 8 342 7 319 325 288 324 347 359 344 20 35 337 346 331 325 317
176 173 170 176 180 180 181 182 183 177 168 174 188 182 184 190 195 196 182 213 209 210 226 222 186 143 283 329 318 296 291 285 251 185 14 347 11 344 329 312 315 319 328
185 181 176 181 181 181 184 187 182 172 168 171 186 197 195 181 184 184 171 208 217 232 250 224 199 175 155 306 311 317 299 287 281 213 166 184 46 33 7 348 352 339 332
194 188 182 184 183 185 188 189 180 172 174 174 186 197 197 175 174 169 180 202 202 241 253 278 265 217 191 205 11 330 318 312 293 268 213 162 141 122 106 11 358 350 333
213 203 192 189 188 190 191 190 180 176 177 180 186 189 190 170 167 173 185 193 196 242 262 266 266 263 234 168 167 201 305 307 299 277 233 179 175 184 197 219 236 247 278
241 218 208 196 194 195 191 189 183 178 182 186 183 178 181 172 172 186 187 189 203 218 228 243 256 251 213 193 193 206 247 278 285 290 290 266 172 167 196 231 240 245 241
258 233 223 206 195 195 187 182 177 178 184 187 182 175 177 176 177 186 189 195 216 214 207 226 243 244 223 208 207 217 240 260 259 258 257 249 189 155 149 283 268 261 246
304 258 236 217 202 196 184 177 178 182 185 185 181 175 175 176 179 186 192 202 213 218 219 225 231 235 239 210 206 206 246 260 258 241 228 203 153 136 134 268 289 298 302
330 303 269 241 213 199 180 176 180 183 185 182 181 178 175 173 179 186 192 196 198 207 216 233 231 223 223 187 194 201 248 269 273 251 188 150 138 133 123 75 317 316 320
328 318 286 269 234 197 177 179 184 187 181 172 174 173 168 169 174 179 181 188 195 198 209 227 223 212 188 169 178 187 236 283 306 314 57 110 134 146 155 181 291 300 313
322 314 295 283 265 207 181 186 191 181 164 160 165 168 166 172 175 169 178 189 187 194 208 219 214 192 160 149 178 200 221 261 295 317 13 82 117 148 159 191 305 321 326
314 306 287 273 262 234 199 196 189 165 155 157 164 168 168 168 163 166 176 184 185 192 201 192 185 166 126 113 131 213 233 244 233 307 68 85 106 126 176 226 318 348 332
317 300 283 266 257 245 223 206 178 161 159 164 169 171 174 168 161 159 166 167 173 180 181 165 151 129 95 77 46 359 328 277 233 242 185 154 133 109 73 82 62 38 21
310 301 281 264 255 248 228 208 187 176 176 176 176 179 175 167 159 140 126 147 123 141 145 127 110 112 109 82 65 57 34 23 33 342 143 113 92 76 65 62 57 50 37
311 304 292 275 260 250 238 212 194 189 190 188 183 180 174 165 155 141 107 68 101 102 100 102 112 95 107 118 89 66 46 31 31 60 89 87 80 74 63 57 46 47 39
Height
1494 1497 1501 1504 1507 1509 1510 1510 1510 1511 1510 1510 1510 1510 1509 1509 1508 1508 1506 1505 1505 1503 1503 1501 1500 1499 1498 1498 1497 1496 1496 1496 1497 1497 1497 1497 1497 1498 1499 1500 1502 1504 1506
1491 1494 1498 1501 1505 1507 1508 1509 1509 1509 1509 1509 1509 1509 1508 1508 1508 1507 1506 1505 1504 1503 1502 1501 1500 1499 1498 1497 1497 1496 1495 1495 1496 1496 1496 1496 1498 1498 1498 1499 1500 1502 1503
1487 1491 1495 1498 1502 1505 1506 1507 1508 1508 1508 1508 1508 1508 1508 1507 1507 1507 1506 1504 1503 1502 1501 1500 1499 1499 1498 1497 1496 1496 1495 1495 1495 1496 1497 1497 1497 1497 1498 1498 1499 1500 1502
1485 1488 1492 1496 1499 1502 1504 1506 1506 1507 1506 1507 1507 1507 1507 1507 1506 1506 1505 1504 1503 1502 1501 1500 1499 1498 1497 1497 1496 1496 1495 1495 1495 1495 1496 1497 1497 1497 1497 1498 1498 1499 1501
1483 1487 1490 1493 1497 1499 1502 1504 1504 1505 1505 1505 1505 1506 1506 1506 1506 1505 1505 1504 1503 1502 1501 1500 1499 1498 1497 1496 1496 1495 1495 1495 1495 1495 1495 1496 1496 1497 1497 1497 1498 1499 1500
1482 1485 1488 1491 1495 1497 1499 1501 1502 1503 1503 1504 1504 1504 1505 1505 1505 1504 1504 1504 1503 1502 1501 1500 1499 1498 1497 1496 1495 1495 1495 1495 1495 1495 1495 1495 1496 1496 1497 1497 1497 1498 1499
1479 1483 1486 1489 1492 1494 1496 1498 1500 1501 1501 1502 1503 1503 1503 1503 1504 1504 1504 1503 1503 1502 1501 1499 1499 1498 1496 1496 1495 1495 1495 1495 1495 1495 1495 1495 1495 1496 1496 1497 1497 1498 1498
1477 1480 1483 1486 1489 1491 1493 1496 1497 1498 1499 1500 1501 1502 1503 1502 1503 1503 1503 1503 1502 1501 1500 1499 1498 1497 1496 1495 1495 1495 1495 1495 1495 1495 1494 1494 1495 1495 1496 1496 1497 1497 1498
1476 1478 1481 1484 1486 1489 1491 1493 1495 1496 1497 1498 1500 1501 1501 1501 1502 1501 1502 1502 1501 1500 1499 1499 1498 1497 1496 1495 1495 1494 1494 1494 1494 1494 1494 1494 1494 1495 1495 1496 1496 1498 1497
1474 1476 1479 1481 1484 1486 1488 1490 1492 1494 1495 1496 1498 1499 1499 1500 1500 1500 1500 1500 1500 1499 1499 1498 1498 1497 1496 1496 1495 1494 1494 1494 1494 1494 1493 1493 1493 1494 1494 1495 1495 1496 1497
1471 1474 1476 1479 1481 1483 1485 1488 1489 1491 1493 1494 1495 1497 1497 1498 1498 1498 1499 1499 1499 1498 1498 1498 1498 1497 1497 1496 1495 1494 1494 1493 1493 1493 1493 1493 1493 1493 1493 1494 1494 1495 1495
1468 1470 1473 1476 1478 1480 1482 1484 1486 1488 1490 1491 1493 1494 1495 1496 1496 1497 1497 1497 1498 1498 1497 1498 1497 1497 1496 1496 1495 1494 1494 1493 1493 1493 1493 1492 1492 1492 1492 1492 1493 1493 1494
1465 1467 1469 1472 1474 1477 1479 1481 1483 1485 1486 1488 1490 1492 1493 1494 1495 1495 1496 1496 1496 1497 1497 1497 1497 1496 1496 1495 1495 1494 1494 1493 1493 1492 1492 1492 1492 1491 1491 1491 1491 1492 1492
1461 1463 1465 1467 1470 1472 1475 1477 1479 1481 1483 1485 1487 1489 1490 1491 1492 1493 1494 1494 1495 1495 1496 1496 1496 1495 1495 1494 1494 1493 1493 1493 1492 1492 1491 1491 1491 1490 1490 1490 1490 1490 1490
1457 1458 1460 1463 1465 1468 1471 1473 1475 1477 1479 1481 1483 1485 1487 1489 1490 1491 1492 1492 1493 1493 1494 1494 1494 1494 1494 1493 1493 1492 1492 1492 1492 1491 1491 1490 1490 1489 1489 1489 1488 1488 1488
1453 1454 1456 1458 1460 1463 1466 1469 1471 1473 1475 1478 1480 1482 1484 1486 1487 1488 1489 1490 1491 1491 1492 1492 1492 1492 1492 1492 1491 1491 1490 1490 1490 1490 1490 1489 1489 1488 1488 1487 1487 1487 1487
1449 1450 1451 1453 1455 1457 1460 1463 1466 1469 1472 1474 1476 1478 1481 1482 1484 1485 1487 1487 1488 1489 1489 1490 1490 1490 1490 1489 1489 1488 1488 1488 1488 1488 1488 1488 1487 1487 1486 1486 1485 1485 1485
1446 1446 1447 1448 1450 1453 1456 1459 1462 1465 1467 1470 1472 1474 1477 1479 1480 1482 1483 1484 1485 1486 1487 1487 1487 1487 1487 1486 1486 1486 1485 1485 1485 1486 1486 1486 1485 1485 1484 1484 1483 1483 1483
1443 1443 1443 1444 1446 1449 1451 1454 1457 1460 1463 1465 1468 1470 1472 1474 1476 1478 1480 1481 1482 1483 1483 1484 1484 1484 1483 1483 1483 1482 1482 1482 1482 1483 1483 1483 1483 1483 1482 1482 1482 1481 1481
1442 1441 1440 1441 1442 1444 1447 1449 1452 1455 1458 1460 1463 1466 1468 1470 1472 1474 1476 1478 1479 1479 1480 1480 1480 1480 1480 1479 1479 1479 1479 1478 1479 1480 1480 1480 1480 1480 1480 1480 1479 1479 1479
1440 1439 1438 1438 1439 1441 1443 1445 1447 1450 1453 1456 1459 1462 1464 1466 1468 1470 1472 1474 1475 1476 1476 1477 1477 1477 1476 1476 1476 1475 1475 1475 1475 1476 1476 1477 1477 1477 1477 1477 1477 1477 1476
1439 1438 1436 1436 1436 1437 1439 1441 1443 1446 1449 1451 1454 1457 1460 1462 1464 1466 1468 1469 1471 1472 1473 1473 1473 1473 1473 1472 1472 1472 1472 1472 1472 1472 1473 1474 1474 1474 1474 1474 1474 1474 1474
1438 1436 1435 1434 1434 1434 1435 1436 1439 1442 1444 1446 1449 1452 1455 1457 1459 1461 1463 1465 1467 1468 1469 1469 1470 1470 1469 1469 1469 1469 1469 1468 1468 1469 1470 1470 1471 1471 1471 1472 1472 1471 1471
1436 1434 1432 1431 1431 1431 1432 1433 1435 1437 1439 1441 1444 1447 1450 1452 1455 1456 1458 1460 1462 1463 1464 1465 1466 1466 1466 1466 1466 1466 1465 1465 1466 1466 1467 1468 1468 1468 1469 1469 1469 1469 1469
1433 1431 1430 1428 1427 1427 1428 1429 1430 1432 1434 1436 1438 1441 1444 1447 1449 1451 1453 1455 1457 1459 1460 1461 1462 1462 1462 1462 1462 1462 1463 1463 1463 1464 1464 1465 1466 1466 1467 1467 1467 1467 1467
1429 1427 1425 1424 1423 1423 1423 1423 1425 1426 1428 1430 1433 1435 1438 1441 1443 1445 1448 1450 1452 1454 1455 1457 1457 1458 1459 1459 1459 1459 1460 1460 1461 1462 1462 1463 1463 1464 1465 1465 1465 1465 1465